Pierceville, KS

9:24 PM CST on December 04, 2016 (GMT -0600)
Garden City Regional

Weather History for KGCK - June, 2013

Change the Weather History Date:

Monday, June 24, 2013

  Actual Average Record
Temperature  
Mean Temperature 84 °F 75 °F  
Max Temperature 95 °F 89 °F 110 °F (1953)
Min Temperature 72 °F 62 °F 52 °F (1967)
Degree Days  
Heating Degree Days 0 0  
Month to date heating degree days 12 14  
Since 1 June heating degree days 12 14  
Since 1 July heating degree days 5211 5205  
Cooling Degree Days 19 11  
Month to date cooling degree days 283 185  
Year to date cooling degree days 430 274  
Since 1 June cooling degree days 283 185  
Growing Degree Days 34 (Base 50)    
Moisture  
Dew Point 58 °F    
Average Humidity 39    
Maximum Humidity 57    
Minimum Humidity 21    
Precipitation  
Precipitation T in 0.12 in 1.79 in (2014)
Month to date precipitation 2.13 2.80  
Year to date precipitation 3.70 9.74  
Sea Level Pressure  
Sea Level Pressure 29.68 in    
Wind  
Wind Speed 19 mph (South)    
Max Wind Speed 36 mph    
Max Gust Speed 47 mph    
Visibility 10 miles    
Events      
T = Trace of Precipitation, MM = Missing Value Source: NWS Daily Summary

Daily Weather History Graph

Daily Weather History Graph

Search for Another Location

Airport or City:

Trip Planner

Search our weather history database for the weather conditions in past years. The results will help you decide how hot, cold, wet, or windy it might be!

Date:

Astronomy

Jun. 24, 2013 Rise Set
Actual Time 6:21 AM CDT 9:09 PM CDT
Civil Twilight 5:50 AM CDT 9:40 PM CDT
Nautical Twilight 5:10 AM CDT 10:19 PM CDT
Astronomical Twilight 4:26 AM CDT 11:04 PM CDT
Moon 10:15 PM CDT (6/24) 7:49 AM CDT (6/24)
Length of Visible Light 15h 50m
Length of Day
14h 47m
Full, 98% of the Moon is Illuminated
Jun 24
Full
Jun 29
Last Quarter
Jul 8
New
Jul 15
First Quarter
Jul 22
Full

Hourly Weather History & Observations

Time (CDT) Temp. Heat Index Dew Point Humidity Pressure Visibility Wind Dir Wind Speed Gust Speed Precip Events Conditions
12:54 AM 79.0 °F - 61.0 °F 54% 29.70 in 10.0 mi SSE 17.3 mph 24.2 mph N/A   Clear
1:54 AM 77.0 °F - 57.9 °F 52% 29.69 in 10.0 mi SSE 15.0 mph - N/A   Clear
2:54 AM 77.0 °F - 55.0 °F 47% 29.68 in 10.0 mi SSE 17.3 mph 23.0 mph N/A   Clear
3:54 AM 75.0 °F - 55.0 °F 50% 29.68 in 10.0 mi SSE 15.0 mph 24.2 mph N/A   Clear
4:54 AM 73.0 °F - 55.9 °F 55% 29.68 in 10.0 mi SSE 15.0 mph 23.0 mph N/A   Clear
5:54 AM 73.0 °F - 57.0 °F 57% 29.68 in 10.0 mi South 18.4 mph 24.2 mph N/A   Clear
6:54 AM 73.9 °F - 57.0 °F 55% 29.74 in 10.0 mi SW 5.8 mph 16.1 mph N/A   Clear
7:54 AM 75.0 °F - 57.9 °F 55% 29.75 in 10.0 mi Calm Calm - N/A   Clear
8:54 AM 78.1 °F - 59.0 °F 52% 29.75 in 10.0 mi South 15.0 mph - N/A   Clear
9:54 AM 82.0 °F 82.4 °F 60.1 °F 47% 29.72 in 10.0 mi SSW 17.3 mph - N/A   Clear
10:54 AM 86.0 °F 85.7 °F 60.1 °F 41% 29.70 in 10.0 mi SSW 25.3 mph 35.7 mph N/A   Clear
11:54 AM 86.0 °F 85.7 °F 60.1 °F 41% 29.70 in 10.0 mi SSW 25.3 mph 32.2 mph N/A   Clear
12:54 PM 84.9 °F 84.4 °F 59.0 °F 41% 29.71 in 10.0 mi SSW 26.5 mph 33.4 mph N/A   Clear
1:54 PM 91.9 °F 91.2 °F 59.0 °F 33% 29.68 in 10.0 mi South 23.0 mph - N/A   Clear
2:54 PM 93.9 °F 93.2 °F 59.0 °F 31% 29.66 in 10.0 mi South 21.9 mph 34.5 mph N/A   Clear
3:54 PM 91.0 °F 89.7 °F 57.0 °F 32% 29.67 in 10.0 mi SSW 23.0 mph 29.9 mph N/A   Clear
4:54 PM 91.0 °F - 46.0 °F 21% 29.68 in 10.0 mi SW 8.1 mph 29.9 mph 0.00 in   Scattered Clouds
5:54 PM 90.0 °F 88.6 °F 57.0 °F 33% 29.63 in 10.0 mi SSE 9.2 mph - N/A   Clear
6:54 PM 95.0 °F - 51.1 °F 22% 29.59 in 10.0 mi South 23.0 mph 32.2 mph N/A   Clear
7:54 PM 82.9 °F 83.3 °F 61.0 °F 47% 29.62 in 10.0 mi SE 34.5 mph 40.3 mph N/A   Clear
8:54 PM 81.0 °F 82.2 °F 63.0 °F 54% 29.62 in 10.0 mi SE 29.9 mph 43.7 mph N/A   Clear
9:54 PM 81.0 °F 81.9 °F 62.1 °F 52% 29.62 in 10.0 mi SE 27.6 mph 38.0 mph N/A   Clear
10:54 PM 81.0 °F 81.7 °F 61.0 °F 50% 29.64 in 10.0 mi SSE 25.3 mph 33.4 mph N/A   Clear
11:54 PM 80.1 °F 81.1 °F 61.0 °F 52% 29.64 in 10.0 mi SSE 25.3 mph 34.5 mph N/A   Clear